Location: Poughquag
(41.6090°N, 73.6820°W)
Time: 09:04:34
(UTC-05:00)

DIWATA 2B (PO-101) - Pass Details

Date: 13 November 2025
Orbit: 563 x 574 km, 98.1° (Epoch: 07 December)

Event Time Altitude Azimuth Distance (km) Brightness Sun altitude
Exits shadow 18:26:49 - 5° (N) 2,169 ? -20.8°
Reaches altitude 10° 18:27:34 10° 3° (N) 1,866 ? -20.9°
Maximum altitude 18:31:29 51° 287° (WNW) 710 ? -21.6°
Drops below altitude 10° 18:35:22 10° 211° (SSW) 1,851 ? -22.3°
Sets 18:37:32 0° 206° (SSW) 2,743 ? -22.8°
